Regional Weather Roundup
Issued by NWS Kansas City/Pleasant Hill, MO

Home | Current Version | Previous Version | Text Only | Print | Product List | Glossary On
Versions: 1 2 3 4 5 6 7 8 9 10 11 12 13 14 15 16 17 18 19 20 21 22 23 24 25 26 27 28 29 30 31 32 33 34 35 36 37 38 39 40 41 42 43 44 45 46 47 48 49 50
865
ASUS43 KEAX 300510
RWREAX

WEATHER ROUNDUP FOR EASTERN KANSAS AND NORTHWEST MISSOURI
NATIONAL WEATHER SERVICE KANSAS CITY/PLEASANT HILL MO
1200 AM CDT SAT JUL 30 2016

KSZ040-057-103>105-MOZ028-029-037-043-300600-
...KANSAS CITY METROPOLITAN AREA...

CITY           SKY/WX    TMP DP  RH WIND       PRES   REMARKS
K.C. INTL      CLEAR     68  59  73 N9        30.02R
K.C. DOWNTOWN  CLEAR     74  62  66 CALM      30.00R
LEES SUMMIT    CLEAR     73  63  70 N5        30.02R
OLATHE - IXD   CLEAR     71  64  78 N6        30.03R
OLATHE - OJC   CLEAR     73  63  70 CALM      30.02R
LAWRENCE       CLEAR     68  64  87 CALM      30.02R

$$

MOZ001>008-011>017-020>025-030>033-038>040-044>046-053-054-300600-
...NORTHERN AND CENTRAL MISSOURI...

CITY           SKY/WX    TMP DP  RH WIND       PRES   REMARKS
ST. JOSEPH     CLEAR     67  62  84 N5        30.02R
MOSBY          CLEAR     66  63  88 CALM      30.01R
WHITEMAN AFB   CLEAR     70  69  98 SW2       29.99R
CLINTON        CLEAR     70  68  94 CALM      30.00S
SEDALIA        CLEAR     73  65  75 CALM      30.01R
WARSAW         NOT AVBL
CHILLICOTHE      N/A     69  64  84 CALM      30.01S
KIRKSVILLE     CLEAR     65  63  93 NW3       30.00R

$$

MOZ041-047>049-056>058-063>065-088>090-097-300600-
...EASTERN AND SOUTHERN MISSOURI...

CITY           SKY/WX    TMP DP  RH WIND       PRES   REMARKS
ST. LOUIS INTL PTCLDY    77  67  71 N6        29.96R
SPIRIT OF STL  CLEAR     72  69  90 CALM      29.95R
COLUMBIA       CLEAR     70  66  87 N3        29.99R
JEFFERSON CITY CLEAR     71  67  87 CALM      29.97R
ROLLA          CLEAR     69  67  93 CALM      29.99R
OSAGE BEACH    CLEAR     72  71  97 CALM      30.00R
SPRINGFIELD    CLEAR     73  68  84 CALM      30.01R
BRANSON        CLOUDY    72  72 100 CALM      30.02R
JOPLIN         CLEAR     73  70  90 NE3       30.01R
WEST PLAINS    CLOUDY    70  67  90 W3        30.02S

$$

IAZ060-094-KSZ022-034>040-054-083-096-NEZ052-066-093-300600-
...KANSAS...SOUTHEAST NEBRASKA AND IOWA...

CITY           SKY/WX    TMP DP  RH WIND       PRES   REMARKS
TOPEKA         CLEAR     71  65  81 CALM      30.02R
MANHATTAN      CLEAR     70  66  87 CALM      30.02S
EMPORIA        CLEAR     71  68  90 NE5       30.02S
CHANUTE        CLEAR     72  70  93 CALM      30.01S
WICHITA        CLOUDY    76  69  79 SE6       30.00F
OMAHA          CLOUDY    66  61  84 CALM      30.04S
LINCOLN        CLOUDY    71  63  75 E7        30.05R
FALLS CITY     CLEAR     68  64  87 CALM      30.02R
LAMONI         CLEAR     64  63  96 NW3       30.00S
DES MOINES     PTCLDY    68  64  87 N5        30.00R

$$





USA.gov is the U.S. government's official web portal to all federal, state and local government web resources and services.